Southbury, CT

1:40 AM EST on February 23, 2017 (GMT -0500)
Waterbury-Oxford

Weather History for KOXC - January, 2012

Change the Weather History Date:

Saturday, January 21, 2012

  Actual Average Record
Temperature  
Mean Temperature 18 °F -  
Max Temperature 21 °F 28 °F 57 °F (2006)
Min Temperature 15 °F 15 °F 0 °F (2005)
Degree Days  
Heating Degree Days 47    
Moisture  
Dew Point 9 °F    
Average Humidity 69    
Maximum Humidity 86    
Minimum Humidity 46    
Precipitation  
Precipitation 0.00 in - - ()
Sea Level Pressure  
Sea Level Pressure 30.19 in    
Wind  
Wind Speed 7 mph (NE)    
Max Wind Speed 18 mph    
Max Gust Speed 23 mph    
Visibility 6 miles    
Events Snow    
Averages and records for this station are not official NWS values.
T = Trace of Precipitation, MM = Missing Value Source: NWS Daily Summary

Daily Weather History Graph

Daily Weather History Graph

Search for Another Location

Airport or City:

Trip Planner

Search our weather history database for the weather conditions in past years. The results will help you decide how hot, cold, wet, or windy it might be!

Date:

Astronomy

Jan. 21, 2012 Rise Set
Actual Time 7:13 AM EST 4:54 PM EST
Civil Twilight 6:43 AM EST 5:24 PM EST
Nautical Twilight 6:09 AM EST 5:58 PM EST
Astronomical Twilight 5:36 AM EST 6:31 PM EST
Moon 5:42 AM EST (1/21) 3:26 PM EST (1/21)
Length of Visible Light 10h 40m
Length of Day
9h 40m
Waning Crescent, 3% of the Moon is Illuminated
Jan 21
Waning Crescent
Jan 23
New
Jan 30
First Quarter
Feb 7
Full
Feb 14
Last Quarter

Hourly Weather History & Observations

Time (EST) Temp. Windchill Dew Point Humidity Pressure Visibility Wind Dir Wind Speed Gust Speed Precip Events Conditions
12:15 AM 19.4 °F 14.3 °F 1.4 °F 46% 30.27 in 10.0 mi NE 3.5 mph - N/A   Overcast
12:55 AM 19.4 °F 12.8 °F 1.4 °F 46% 30.26 in 10.0 mi NNE 4.6 mph - N/A   Overcast
1:15 AM 19.4 °F 12.8 °F 1.4 °F 46% 30.26 in 10.0 mi NNE 4.6 mph - N/A   Overcast
1:35 AM 19.4 °F 14.3 °F 1.4 °F 46% 30.26 in 10.0 mi NNE 3.5 mph - N/A   Overcast
1:55 AM 19.4 °F 14.3 °F 1.4 °F 46% 30.26 in 10.0 mi NE 3.5 mph - N/A   Overcast
2:15 AM 19.4 °F - 1.4 °F 46% 30.27 in 10.0 mi Calm Calm - N/A   Overcast
2:35 AM 19.4 °F 14.3 °F 1.4 °F 46% 30.26 in 10.0 mi NE 3.5 mph - N/A   Overcast
2:55 AM 19.4 °F 12.8 °F 1.4 °F 46% 30.25 in 10.0 mi ENE 4.6 mph - N/A   Overcast
3:35 AM 17.6 °F 12.3 °F 1.4 °F 49% 30.25 in 4.0 mi ENE 3.5 mph - N/A   Overcast
4:15 AM 17.6 °F 10.7 °F 8.6 °F 68% 30.21 in 1.8 mi East 4.6 mph - N/A   Overcast
4:35 AM 15.8 °F 8.6 °F 10.4 °F 79% 30.20 in 1.5 mi East 4.6 mph - N/A   Overcast
4:55 AM 15.8 °F 8.6 °F 10.4 °F 79% 30.19 in 1.2 mi East 4.6 mph - N/A   Overcast
5:15 AM 15.8 °F 8.6 °F 10.4 °F 79% 30.18 in 0.8 mi East 4.6 mph - N/A   Overcast
5:55 AM 15.8 °F 7.2 °F 10.4 °F 79% 30.15 in 1.0 mi East 5.8 mph - N/A Snow Light Snow
6:45 AM 15.8 °F 7.2 °F 10.4 °F 79% 30.16 in 1.0 mi ENE 5.8 mph - N/A Snow Light Snow
7:50 AM 15.8 °F 2.7 °F 10.4 °F 79% 30.14 in 1.0 mi East 11.5 mph - N/A Snow Light Snow
8:50 AM 15.8 °F 4.2 °F 12.2 °F 86% 30.13 in 0.8 mi ENE 9.2 mph - N/A Snow Snow
9:50 AM 15.8 °F 2.7 °F 10.4 °F 79% 30.11 in 0.5 mi ENE 11.5 mph 18.4 mph N/A Snow Snow
10:45 AM 17.6 °F 5.0 °F 12.2 °F 79% 30.08 in 0.8 mi ENE 11.5 mph 18.4 mph N/A Snow Snow
11:45 AM 17.6 °F 5.0 °F 12.2 °F 79% 30.04 in 0.2 mi NE 11.5 mph 19.6 mph N/A Snow Heavy Snow
12:55 PM 17.6 °F 4.3 °F 12.2 °F 79% 30.02 in 0.8 mi NE 12.7 mph 19.6 mph N/A Snow Light Snow
1:55 PM 19.4 °F 7.2 °F 15.8 °F 86% 30.02 in 1.0 mi NE 11.5 mph 21.9 mph N/A Snow Light Snow
2:45 PM 21.2 °F - 15.8 °F 80% 30.03 in 2.0 mi North - - N/A Snow Light Snow
3:45 PM 21.2 °F 8.9 °F 15.8 °F 80% 30.05 in 3.0 mi NNE 12.7 mph 20.7 mph N/A Snow Blowing Snow
4:45 PM 21.2 °F 6.4 °F 15.8 °F 80% 30.09 in 3.0 mi NNE 18.4 mph 23.0 mph N/A Snow Blowing Snow
5:45 PM 21.2 °F 7.8 °F 15.8 °F 80% 30.14 in 10.0 mi NNE 15.0 mph 20.7 mph N/A   Overcast
6:45 PM 21.2 °F 7.8 °F 15.8 °F 80% 30.17 in 10.0 mi NNE 15.0 mph - N/A   Overcast
7:45 PM 21.2 °F 8.3 °F 14.0 °F 74% 30.20 in 10.0 mi NNE 13.8 mph - N/A   Overcast
8:55 PM 19.4 °F 6.6 °F 12.2 °F 74% 30.22 in 10.0 mi NNE 12.7 mph - N/A   Partly Cloudy
9:15 PM 19.4 °F 6.0 °F 12.2 °F 74% 30.23 in 10.0 mi NNE 13.8 mph - N/A   Clear
9:35 PM - - - N/A% 30.23 in 10.0 mi NNE 12.7 mph - N/A   Clear
10:15 PM 19.4 °F 7.2 °F 10.4 °F 68% 30.27 in 10.0 mi NNE 11.5 mph - N/A   Clear
10:35 PM 17.6 °F 4.3 °F 10.4 °F 73% 30.27 in 10.0 mi NNE 12.7 mph - N/A   Clear
11:15 PM 17.6 °F 6.4 °F 10.4 °F 73% 30.29 in 10.0 mi NNE 9.2 mph - N/A   Clear
11:35 PM 17.6 °F 6.4 °F 8.6 °F 68% 30.29 in 10.0 mi NNE 9.2 mph - N/A   Clear
11:55 PM 17.6 °F 5.7 °F 8.6 °F 68% 30.30 in 10.0 mi NNE 10.4 mph - N/A   Clear